Torna al catalogo

STARLINK-37256

AttivoComunicazioniVLEO
NORAD 68569·PAYLOAD·🇺🇸 United States

Lanciato Apr 2, 2026 da Cape Canaveral Space Force Station

Loading…

Prossimi Passaggi (prossime 24 ore)

TLE

AggiornatoSource: CelesTrak SupGP

Epoca: Sep 14, 2026, 15:59 UTC

1 68569C 26070AD  26257.66645833  .00051258  00000+0  15151-2 0  2574
2 68569  53.1590 200.6351 0001159  80.6340  34.3829 15.34351276    10

Traccia STARLINK-37256 in tempo reale con AllMySat

Download on the App Store